Flag for Germany Weather past 2 weeks in Memmingen, Bavaria, Germany

Now
38 °F

Light rain. Overcast.


Feels Like: 36 °F
Forecast: 28 / 47 °F
Wind: 3 mph from South

Location: Kempten

Current Time: Oct 23, 2014 at 8:03:14 PM

Latest Report: Oct 23, 2014 at 7:00 PM


Visibility: 4 mi

Pressure: 30.32 "Hg

Humidity: 93%

Dew point: 36 °F

Location of MemmingenLocation

Historic Weather in Memmingen — Graph

°F

Memmingen temperature yesterday

Maximum temperature yesterday: 43 °F (at 12:00 AM)
Minimum temperature yesterday: 36 °F (at 3:00 PM)
Average temperature yesterday: 39 °F

Past Weeks' High & Low Weather Summary

 TemperatureHumidityPressure
High79 °F (Oct 9, 2:00 PM)99% (Oct 18, 3:00 AM)30.32 "Hg (Oct 18, 3:00 AM)
Low36 °F (Oct 22, 3:00 PM)25% (Oct 9, 4:00 PM)29.69 "Hg (Oct 21, 8:00 PM)
Average54 °F82%29.98 "Hg
* Reported Oct 8 7:00 PM — Oct 23 7:00 PM, Memmingen, Weather by CustomWeather, © 2014

Note: Actual official high and low records may vary slightly from our data, if they occured in-between our weather recording intervals... More about our weather records

Advertising

Memmingen weather history for previous 24 hours

 ConditionsComfort  
Time TempWeatherWind HumidityBarometerVisibility
7:00 PM
Oct 23
38 °FLight rain. Overcast.3 mph93%30.32 "Hg4 mi
6:00 PM39 °FOvercast.5 mph90%30.31 "Hg18 mi
4:00 PM40 °FLight rain. Overcast.5 mph91%30.30 "Hg9 mi
3:00 PM39 °FDrizzle. Overcast.5 mph92%30.29 "Hg12 mi
2:00 PM40 °FDrizzle. Overcast.3 mph94%30.31 "Hg9 mi
1:00 PM40 °FLight freezing rain. Overcast.2 mph92%30.32 "Hg6 mi
12:00 PM40 °FLight freezing rain. Overcast.2 mph90%30.31 "Hg7 mi
10:00 AM40 °FLight freezing rain. Overcast.3 mph91%30.29 "Hg6 mi
9:00 AM39 °FLight freezing rain. Overcast.2 mph93%30.28 "Hg5 mi
8:00 AM39 °FLight rain. Overcast.3 mph92%30.26 "Hg2 mi
7:00 AM39 °FLight freezing rain. Overcast.5 mph91%30.24 "Hg3 mi
6:00 AM39 °FLight rain. Overcast.2 mph93%30.22 "Hg6 mi
5:00 AM39 °FLight freezing rain. Overcast.3 mph92%30.20 "Hg2 mi
4:00 AM40 °FLight freezing rain. Overcast.5 mph90%30.19 "Hg5 mi
3:00 AM40 °FRain. Overcast.3 mph91%30.18 "Hg2 mi
2:00 AM39 °FRain. Overcast.3 mph92%30.16 "Hg2 mi
1:00 AM38 °FRain. Overcast.3 mph95%30.16 "Hg2 mi
12:00 AM37 °FRain. Overcast.2 mph95%30.17 "Hg2 mi
10:00 PM
Oct 22
37 °FLight rain. Overcast.5 mph92%30.14 "Hg5 mi
9:00 PM37 °FLight rain. Overcast.6 mph92%30.14 "Hg4 mi
8:00 PM37 °FLight rain. Overcast.6 mph92%30.13 "Hg5 mi
Weather by CustomWeather, © 2014

See weather overviewHow to use our weather pages